FW3318 Weather Reports


Display with metric or nautical units.
time (UTC)temp
F
wind
direction
speed
MPH
gust
MPH
rain 1hr
in
rain 24hr
in
rain mn
in
humidity
%
barometer
mb
20260508035514 38 310 5.0 10.0 0.05 0.06 0.06 91 1014.8
20260508035014 38 339 5.0 11.0 0.06 0.06 0.06 90 1014.8
20260508034513 38 340 6.0 12.0 0.06 0.06 0.06 90 1014.9
20260508034016 38 333 4.0 12.0 0.06 0.06 0.06 90 1014.9
20260508033513 37 307 3.0 10.0 0.06 0.06 0.06 90 1015.0
20260508033020 37 329 4.0 10.0 0.05 0.05 0.05 90 1015.2
20260508032514 38 290 3.0 8.0 0.05 0.05 0.05 89 1015.4
20260508032012 38 314 3.0 9.0 0.05 0.05 0.05 89 1015.6
20260508031514 39 306 4.0 9.0 0.04 0.04 0.04 88 1015.9
20260508031012 39 259 1.0 4.0 0.03 0.03 0.03 87 1016.1
20260508030513 40 235 1.0 7.0 0.03 0.03 0.03 86 1016.2
20260508030011 40 214 1.0 10.0 0.02 0.02 0.02 84 1016.2
20260508025509 41 200 2.0 8.0 0.01 0.01 0.01 81 1016.2
20260508025009 43 280 3.0 11.0 0.00 0.00 0.00 76 1016.1
20260508024509 43 143 5.0 11.0 0.00 0.00 0.00 68 1015.8
20260508024009 44 177 2.0 13.0 0.00 0.00 0.00 64 1015.5
20260508023510 46 233 5.0 13.0 0.00 0.00 0.00 62 1015.2
20260508023008 47 301 2.0 7.0 0.00 0.00 0.00 59 1015.1
20260508022508 47 173 2.0 6.0 0.00 0.00 0.00 59 1014.9
20260508022008 47 104 0.0 6.0 0.00 0.00 0.00 59 1014.7
20260508021509 47 22 0.0 3.0 0.00 0.00 0.00 59 1014.6
20260508021009 47 15 1.0 4.0 0.00 0.00 0.00 58 1014.6
20260508020507 48 19 1.0 10.0 0.00 0.00 0.00 58 1014.5
20260508020007 48 95 3.0 10.0 0.00 0.00 0.00 58 1014.5
20260508015507 48 105 2.0 10.0 0.00 0.00 0.00 56 1014.6
20260508015006 49 98 3.0 6.0 0.00 0.00 0.00 52 1014.5
20260508014506 49 122 0.0 2.0 0.00 0.00 0.00 51 1014.6
20260508014007 49 122 0.0 5.0 0.00 0.00 0.00 50 1014.6
20260508013509 49 298 1.0 7.0 0.00 0.00 0.00 51 1014.5
20260508013006 49 147 3.0 7.0 0.00 0.00 0.00 52 1014.5
20260508012505 49 59 1.0 9.0 0.00 0.00 0.00 52 1014.5
20260508012005 49 20 2.0 9.0 0.00 0.00 0.00 51 1014.6
20260508011504 50 43 2.0 9.0 0.00 0.00 0.00 52 1014.5
20260508011004 49 355 2.0 9.0 0.00 0.00 0.00 51 1014.5
20260508010503 49 307 4.0 5.0 0.00 0.00 0.00 48 1014.6
20260508010007 49 28 0.0 6.0 0.00 0.00 0.00 51 1014.6
20260508005502 49 299 3.0 6.0 0.00 0.00 0.00 49 1014.6
20260508005002 49 321 3.0 8.0 0.00 0.00 0.00 48 1014.7
20260508004502 50 126 4.0 8.0 0.00 0.00 0.00 49 1014.8
20260508004101 50 67 2.0 5.0 0.00 0.00 0.00 48 1014.9
20260508003605 50 355 1.0 5.0 0.00 0.00 0.00 51 1014.8
20260508003059 50 82 0.0 5.0 0.00 0.00 0.00 51 1014.9
20260508002558 49 286 2.0 5.0 0.00 0.00 0.00 51 1015.0
20260508002056 49 188 1.0 4.0 0.00 0.00 0.00 52 1015.2
20260508001600 48 219 2.0 5.0 0.00 0.00 0.00 52 1015.3
20260508001054 48 311 1.0 5.0 0.00 0.00 0.00 54 1015.4
20260508000554 47 305 2.0 5.0 0.00 0.00 0.00 55 1015.5
20260508000052 47 335 3.0 5.0 0.00 0.00 0.00 53 1015.4
20260507235551 48 317 2.0 4.0 0.00 0.00 0.00 53 1015.5
20260507235052 48 299 1.0 3.0 0.00 0.00 0.00 56 1015.6
20260507234551 48 198 0.0 2.0 0.00 0.00 0.00 55 1015.6
20260507234050 47 199 1.0 2.0 0.00 0.00 0.00 54 1015.7
20260507233550 47 198 0.0 4.0 0.00 0.00 0.00 53 1015.7
20260507233051 47 198 1.0 4.0 0.00 0.00 0.00 53 1015.7
20260507232550 48 198 2.0 4.0 0.00 0.00 0.00 54 1015.7
20260507232049 48 236 2.0 4.0 0.00 0.00 0.00 53 1015.8
20260507231551 48 289 0.0 3.0 0.00 0.00 0.00 53 1015.7
20260507231054 48 306 2.0 3.0 0.00 0.00 0.00 55 1015.8
20260507230550 47 360 1.0 4.0 0.00 0.00 0.00 55 1015.9
20260507230048 47 283 1.0 5.0 0.00 0.00 0.00 54 1016.0
20260507225548 47 69 2.0 5.0 0.00 0.00 0.00 55 1016.0
20260507225047 48 105 2.0 6.0 0.00 0.00 0.00 53 1015.9
20260507224548 47 92 3.0 6.0 0.00 0.00 0.00 55 1016.0
20260507224045 47 339 1.0 6.0 0.00 0.00 0.00 57 1016.0
20260507223546 47 322 2.0 7.0 0.00 0.00 0.00 56 1015.9
20260507223045 47 312 3.0 10.0 0.00 0.00 0.00 55 1016.0
20260507222546 47 103 1.0 8.0 0.00 0.00 0.00 54 1016.0
20260507222045 47 273 2.0 4.0 0.00 0.00 0.00 55 1016.0
20260507221545 47 285 2.0 4.0 0.00 0.00 0.00 55 1016.0
20260507221049 47 45 1.0 6.0 0.00 0.00 0.00 57 1016.2
20260507220544 47 25 3.0 6.0 0.00 0.00 0.00 55 1016.2
20260507220043 47 74 3.0 6.0 0.00 0.00 0.00 55 1016.2
20260507215544 47 56 2.0 8.0 0.00 0.00 0.00 56 1016.1
20260507215044 47 355 3.0 8.0 0.00 0.00 0.00 55 1016.2
20260507214548 47 50 1.0 7.0 0.00 0.00 0.00 56 1016.1
20260507214042 47 80 3.0 7.0 0.00 0.00 0.00 56 1016.2
20260507213542 47 89 3.0 6.0 0.00 0.00 0.00 56 1016.1
20260507213041 46 26 2.0 6.0 0.00 0.00 0.00 57 1016.2
20260507212540 46 107 3.0 6.0 0.00 0.00 0.00 57 1016.2
20260507212040 46 5 1.0 5.0 0.00 0.00 0.00 57 1016.3
20260507211543 46 26 1.0 5.0 0.00 0.00 0.00 57 1016.3
20260507211038 46 11 2.0 5.0 0.00 0.00 0.00 58 1016.3
20260507210538 46 324 2.0 5.0 0.00 0.00 0.00 57 1016.3
20260507210038 46 94 3.0 6.0 0.00 0.00 0.00 56 1016.3
20260507205536 46 92 0.0 6.0 0.00 0.00 0.00 58 1016.4
20260507205040 45 115 1.0 3.0 0.00 0.00 0.00 56 1016.4
20260507204538 45 117 1.0 5.0 0.00 0.00 0.00 56 1016.4
20260507204035 45 76 1.0 5.0 0.00 0.00 0.00 58 1016.4
20260507203535 45 32 1.0 3.0 0.00 0.00 0.00 58 1016.5
20260507203037 45 247 1.0 3.0 0.00 0.00 0.00 58 1016.4
20260507202535 45 297 1.0 3.0 0.00 0.00 0.00 58 1016.5
20260507202035 45 18 0.0 8.0 0.00 0.00 0.00 58 1016.5
20260507201535 45 5 1.0 8.0 0.00 0.00 0.00 59 1016.5
20260507201035 45 63 1.0 6.0 0.00 0.00 0.00 59 1016.5
20260507200535 45 21 3.0 7.0 0.00 0.00 0.00 58 1016.4
20260507200034 45 11 1.0 5.0 0.00 0.00 0.00 58 1016.3
20260507195533 45 63 1.0 6.0 0.00 0.00 0.00 59 1016.4
20260507195033 45 288 2.0 6.0 0.00 0.00 0.00 58 1016.4
20260507194534 44 78 1.0 6.0 0.00 0.00 0.00 62 1016.4
20260507194032 45 275 3.0 6.0 0.00 0.00 0.00 59 1016.5
20260507193534 45 22 2.0 6.0 0.00 0.00 0.00 61 1016.5
20260507193035 45 161 2.0 6.0 0.00 0.00 0.00 59 1016.6
20260507192531 44 5 1.0 7.0 0.00 0.00 0.00 60 1016.7
20260507192029 44 65 4.0 7.0 0.00 0.00 0.00 59 1016.7
20260507191529 44 92 2.0 5.0 0.00 0.00 0.00 61 1016.6
20260507191027 44 97 2.0 5.0 0.00 0.00 0.00 61 1016.8
20260507190526 44 88 2.0 4.0 0.00 0.00 0.00 64 1016.7
20260507190027 43 69 1.0 4.0 0.00 0.00 0.00 64 1016.7
20260507185525 43 32 1.0 3.0 0.00 0.00 0.00 63 1016.7
20260507185025 43 333 1.0 4.0 0.00 0.00 0.00 63 1016.7
20260507184526 43 310 2.0 4.0 0.00 0.00 0.00 62 1016.7
20260507184026 43 306 2.0 4.0 0.00 0.00 0.00 62 1016.9
20260507183529 43 40 2.0 5.0 0.00 0.00 0.00 62 1016.9
20260507183039 43 81 2.0 5.0 0.00 0.00 0.00 61 1016.9
20260507182526 43 88 1.0 4.0 0.00 0.00 0.00 61 1017.0
20260507182025 43 84 1.0 5.0 0.00 0.00 0.00 62 1017.0
20260507181524 43 343 1.0 3.0 0.00 0.00 0.00 63 1017.0
20260507181025 43 13 1.0 5.0 0.00 0.00 0.00 63 1017.0
20260507180523 43 66 2.0 5.0 0.00 0.00 0.00 63 1017.2
20260507180025 43 100 2.0 6.0 0.00 0.00 0.00 64 1017.1
20260507175520 42 88 2.0 4.0 0.00 0.00 0.00 64 1017.1
20260507175020 42 108 2.0 4.0 0.00 0.00 0.00 65 1017.1
20260507174519 41 262 2.0 4.0 0.00 0.00 0.00 66 1017.2
20260507174016 41 153 1.0 6.0 0.00 0.00 0.00 68 1017.2
20260507173514 41 97 3.0 4.0 0.00 0.00 0.00 69 1017.4
20260507173014 40 76 1.0 4.0 0.00 0.00 0.00 69 1017.3
20260507172514 40 61 1.0 6.0 0.00 0.00 0.00 70 1017.3
20260507172013 40 55 1.0 5.0 0.00 0.00 0.00 71 1017.3
20260507171510 39 59 2.0 4.0 0.00 0.00 0.00 72 1017.3
20260507171009 39 36 1.0 3.0 0.00 0.00 0.00 74 1017.4
20260507170511 39 64 1.0 3.0 0.00 0.00 0.00 74 1017.3
20260507170005 39 76 1.0 3.0 0.00 0.00 0.00 73 1017.3
20260507165504 39 76 1.0 3.0 0.00 0.00 0.00 74 1017.2
20260507165103 38 76 1.0 4.0 0.00 0.00 0.00 74 1017.3
20260507164502 38 89 1.0 4.0 0.00 0.00 0.00 74 1017.4
20260507164000 38 111 1.0 4.0 0.00 0.00 0.00 75 1017.4
20260507163602 38 111 0.0 4.0 0.00 0.00 0.00 75 1017.4
20260507163101 38 42 1.0 4.0 0.00 0.00 0.00 75 1017.5
20260507162558 38 42 2.0 4.0 0.00 0.00 0.00 75 1017.5
20260507162056 38 302 2.0 6.0 0.00 0.00 0.00 77 1017.4
20260507161601 37 99 1.0 6.0 0.00 0.00 0.00 78 1017.4
20260507161054 36 62 1.0 4.0 0.00 0.00 0.00 79 1017.3
20260507160554 35 35 1.0 4.0 0.00 0.00 0.00 81 1017.2
20260507160054 34 22 2.0 4.0 0.00 0.00 0.00 82 1017.2
20260507155551 33 83 0.0 0.0 0.00 0.00 0.00 83 1017.3
20260507155050 33 83 0.0 2.0 0.00 0.00 0.00 83 1017.2
20260507154550 33 83 0.0 2.0 0.00 0.00 0.00 83 1017.3
20260507154050 33 84 0.0 2.0 0.00 0.00 0.00 83 1017.2
20260507153548 32 84 0.0 1.0 0.00 0.00 0.00 84 1017.3
20260507153058 32 84 0.0 1.0 0.00 0.00 0.00 84 1017.2
20260507152548 32 84 0.0 2.0 0.00 0.00 0.00 85 1017.1
20260507152048 31 84 0.0 2.0 0.00 0.00 0.00 86 1017.1
20260507151549 31 85 0.0 2.0 0.00 0.00 0.00 86 1017.1
20260507151045 31 84 0.0 2.0 0.00 0.00 0.00 86 1016.9
20260507150544 31 87 0.0 0.0 0.00 0.00 0.00 86 1017.0
20260507150044 31 87 0.0 0.0 0.00 0.00 0.00 86 1017.1
20260507145544 31 87 0.0 0.0 0.00 0.00 0.00 86 1017.1
20260507145043 31 87 0.0 0.0 0.00 0.00 0.00 85 1017.1
20260507144542 31 87 0.0 0.0 0.00 0.00 0.00 85 1017.1
20260507144042 31 87 0.0 0.0 0.00 0.00 0.00 85 1017.2
20260507143541 31 87 0.0 0.0 0.00 0.00 0.00 85 1017.2
20260507143048 31 87 0.0 0.0 0.00 0.00 0.00 85 1017.2
20260507142541 31 87 0.0 0.0 0.00 0.00 0.00 85 1017.3
20260507142040 31 87 0.0 0.0 0.00 0.00 0.00 85 1017.3
20260507141544 31 87 0.0 0.0 0.00 0.00 0.00 85 1017.2
20260507141040 31 87 0.0 0.0 0.00 0.00 0.00 84 1017.3
20260507140541 31 87 0.0 0.0 0.00 0.00 0.00 84 1017.3
20260507140038 31 87 0.0 0.0 0.00 0.00 0.00 84 1017.2
20260507135538 31 87 0.0 0.0 0.00 0.00 0.00 84 1017.2
20260507135037 31 87 0.0 0.0 0.00 0.00 0.00 84 1017.4
20260507134537 31 87 0.0 0.0 0.00 0.00 0.00 84 1017.3
20260507134036 31 87 0.0 0.0 0.00 0.00 0.00 85 1017.4
20260507133536 31 87 0.0 0.0 0.00 0.00 0.00 84 1017.3
20260507133036 31 87 0.0 0.0 0.00 0.00 0.00 84 1017.3
20260507132534 31 87 0.0 0.0 0.00 0.00 0.00 85 1017.1
20260507132033 31 87 0.0 0.0 0.00 0.00 0.00 85 1017.2
20260507131535 31 87 0.0 0.0 0.00 0.00 0.00 84 1017.1
20260507131031 31 87 0.0 0.0 0.00 0.00 0.00 84 1017.0
20260507130529 32 87 0.0 0.0 0.00 0.00 0.00 84 1017.0
20260507130029 32 87 0.0 0.0 0.00 0.00 0.00 84 1017.0
20260507125528 32 87 0.0 0.0 0.00 0.00 0.00 84 1017.1
20260507125027 32 87 0.0 0.0 0.00 0.00 0.00 84 1017.1
20260507124544 32 87 0.0 0.0 0.00 0.00 0.00 84 1017.1
20260507124026 32 87 0.0 0.0 0.00 0.00 0.00 84 1017.1
20260507123526 32 87 0.0 0.0 0.00 0.00 0.00 84 1017.2
20260507123028 32 87 0.0 0.0 0.00 0.00 0.00 84 1017.1
20260507122525 32 87 0.0 0.0 0.00 0.00 0.00 85 1017.0
20260507122025 32 87 0.0 0.0 0.00 0.00 0.00 85 1016.9
20260507121537 32 87 0.0 0.0 0.00 0.00 0.00 85 1016.9
20260507121025 32 87 0.0 0.0 0.00 0.00 0.00 85 1017.0
20260507120527 32 87 0.0 0.0 0.00 0.00 0.00 85 1016.9
20260507120023 32 87 0.0 0.0 0.00 0.00 0.00 85 1016.9
20260507115523 32 87 0.0 0.0 0.00 0.00 0.00 85 1016.9
20260507115026 32 87 0.0 0.0 0.00 0.00 0.00 85 1016.9
20260507114525 32 87 0.0 0.0 0.00 0.00 0.00 85 1016.9
20260507114021 32 87 0.0 0.0 0.00 0.00 0.00 84 1016.8
20260507113521 32 87 0.0 0.0 0.00 0.00 0.00 84 1016.8
20260507113023 32 87 0.0 0.0 0.00 0.00 0.00 84 1016.8
20260507112520 32 87 0.0 0.0 0.00 0.00 0.00 84 1016.8
20260507112020 32 87 0.0 0.0 0.00 0.00 0.00 84 1016.8
20260507111519 32 87 0.0 0.0 0.00 0.00 0.00 84 1016.7
20260507111018 33 87 0.0 0.0 0.00 0.00 0.00 84 1016.5
20260507110517 33 87 0.0 0.0 0.00 0.00 0.00 83 1016.7
20260507110028 33 87 0.0 0.0 0.00 0.00 0.00 83 1016.7
20260507105516 33 87 0.0 0.0 0.00 0.00 0.00 83 1016.6
20260507105016 33 87 0.0 0.0 0.00 0.00 0.00 83 1016.8
20260507104516 33 87 0.0 0.0 0.00 0.00 0.00 82 1016.8
20260507104020 33 87 0.0 0.0 0.00 0.00 0.00 82 1016.8
20260507103515 33 87 0.0 0.0 0.00 0.00 0.00 82 1016.8
20260507103014 33 87 0.0 0.0 0.00 0.00 0.00 81 1016.7
20260507102514 33 87 0.0 0.0 0.00 0.00 0.00 81 1016.8
20260507102013 33 87 0.0 0.0 0.00 0.00 0.00 80 1016.6
20260507101512 33 87 0.0 0.0 0.00 0.00 0.00 80 1016.4
20260507101011 34 87 0.0 0.0 0.00 0.00 0.00 80 1016.5
20260507100510 34 87 0.0 0.0 0.00 0.00 0.00 79 1016.5
20260507100018 34 87 0.0 0.0 0.00 0.00 0.00 79 1016.5
20260507095510 34 87 0.0 0.0 0.00 0.00 0.00 79 1016.4
20260507095009 34 87 0.0 0.0 0.00 0.00 0.00 79 1016.4
20260507094508 34 87 0.0 0.0 0.00 0.00 0.00 79 1016.4
20260507094008 34 87 0.0 0.0 0.00 0.00 0.00 79 1016.5
20260507093511 35 86 0.0 0.0 0.00 0.00 0.00 79 1016.4
20260507093006 35 87 0.0 0.0 0.00 0.00 0.00 78 1016.4
20260507092506 35 87 0.0 2.0 0.00 0.00 0.00 78 1016.3
20260507092004 35 87 0.0 2.0 0.00 0.00 0.00 78 1016.2
20260507091505 35 87 1.0 3.0 0.00 0.00 0.00 78 1016.2
20260507091006 35 86 1.0 3.0 0.00 0.00 0.00 78 1016.2
20260507090507 35 87 0.0 2.0 0.00 0.00 0.00 77 1016.0
20260507090006 35 87 0.0 2.0 0.00 0.00 0.00 77 1016.0
20260507085501 35 216 0.0 2.0 0.00 0.00 0.00 77 1015.9
20260507085100 35 216 0.0 2.0 0.00 0.00 0.00 77 1016.0
20260507084600 35 217 0.0 0.0 0.00 0.00 0.00 77 1016.0
20260507084059 35 217 0.0 0.0 0.00 0.00 0.00 77 1015.8
20260507083558 35 217 0.0 0.0 0.00 0.00 0.00 76 1015.8
20260507083058 35 217 0.0 0.0 0.00 0.00 0.00 76 1015.8
20260507082557 35 217 0.0 0.0 0.00 0.00 0.00 75 1015.9
20260507082057 35 217 0.0 0.0 0.00 0.00 0.00 75 1015.8
20260507081556 35 217 0.0 0.0 0.00 0.00 0.00 75 1015.8
20260507081055 36 217 0.0 0.0 0.00 0.00 0.00 74 1015.8
20260507080555 36 217 0.0 0.0 0.00 0.00 0.00 73 1015.8
20260507080059 36 217 0.0 0.0 0.00 0.00 0.00 73 1015.8
20260507075553 36 217 0.0 0.0 0.00 0.00 0.00 73 1015.7
20260507075056 36 217 0.0 0.0 0.00 0.00 0.00 72 1015.7
20260507074606 36 217 0.0 0.0 0.00 0.00 0.00 72 1015.7
20260507074052 36 217 0.0 0.0 0.00 0.00 0.00 72 1015.7
20260507073555 36 217 0.0 0.0 0.00 0.00 0.00 71 1015.6
20260507073053 37 217 0.0 0.0 0.00 0.00 0.00 71 1015.6
20260507072552 37 217 0.0 0.0 0.00 0.00 0.00 71 1015.7
20260507072051 37 217 0.0 0.0 0.00 0.00 0.00 71 1015.6
20260507071651 37 217 0.0 0.0 0.00 0.00 0.00 71 1015.6
20260507071051 37 217 0.0 2.0 0.00 0.00 0.00 70 1015.6
20260507070550 37 217 0.0 2.0 0.00 0.00 0.00 70 1015.6
20260507070106 37 217 0.0 2.0 0.00 0.00 0.00 71 1015.5
20260507065551 37 211 0.0 2.0 0.00 0.00 0.00 70 1015.4
20260507065049 37 211 0.0 2.0 0.00 0.00 0.00 69 1015.5
20260507064549 37 211 0.0 4.0 0.00 0.00 0.00 69 1015.4
20260507064049 37 211 1.0 4.0 0.00 0.00 0.00 69 1015.3
20260507063548 37 197 0.0 0.0 0.00 0.00 0.00 68 1015.4
20260507063056 37 111 0.0 0.0 0.00 0.00 0.00 68 1015.2
20260507062548 38 111 0.0 0.0 0.00 0.00 0.00 67 1015.2
20260507062048 38 111 0.0 0.0 0.00 0.00 0.00 66 1015.2
20260507061549 38 111 0.0 0.0 0.00 0.00 0.00 65 1015.2
20260507061048 38 111 0.0 0.0 0.00 0.00 0.00 65 1015.2
20260507060550 38 111 0.0 0.0 0.00 0.00 0.00 66 1015.2
20260507060047 38 194 0.0 0.0 0.00 0.00 0.00 65 1015.2
20260507055546 39 194 0.0 0.0 0.00 0.00 0.00 65 1015.1
20260507055045 39 194 0.0 0.0 0.00 0.00 0.00 65 1015.0
20260507054548 39 194 0.0 2.0 0.00 0.00 0.00 65 1015.0
20260507054045 39 194 0.0 2.0 0.00 0.00 0.00 66 1015.1
20260507053544 39 167 0.0 1.0 0.00 0.00 0.00 65 1014.7
20260507053044 39 167 0.0 3.0 0.00 0.00 0.00 63 1014.6
20260507052548 39 167 1.0 3.0 0.00 0.00 0.00 63 1014.7
20260507052043 40 223 0.0 1.0 0.00 0.00 0.00 62 1014.7
20260507051543 40 223 0.0 1.0 0.00 0.00 0.00 61 1014.7
20260507051042 40 223 0.0 0.0 0.00 0.00 0.00 59 1014.6
20260507050542 40 223 0.0 0.0 0.00 0.00 0.00 59 1014.6
20260507050042 40 223 0.0 0.0 0.00 0.00 0.00 59 1014.6
20260507045542 40 227 0.0 2.0 0.00 0.00 0.00 57 1014.6
20260507045041 40 227 0.0 3.0 0.00 0.00 0.00 56 1014.6
20260507044543 40 228 1.0 3.0 0.00 0.00 0.00 55 1014.6
20260507044045 40 254 0.0 2.0 0.00 0.00 0.00 59 1014.6
20260507043541 40 254 0.0 2.0 0.00 0.00 0.00 59 1014.6
20260507043041 40 261 0.0 1.0 0.00 0.00 0.00 57 1014.6
20260507042542 41 261 0.0 2.0 0.00 0.00 0.00 57 1014.6
20260507042040 41 261 0.0 2.0 0.00 0.00 0.00 55 1014.6
20260507041540 41 261 1.0 2.0 0.00 0.00 0.00 53 1014.5
20260507041040 41 261 0.0 2.0 0.00 0.00 0.00 54 1014.6
20260507040539 41 261 0.0 7.0 0.00 0.00 0.00 53 1014.6
20260507040039 42 233 2.0 7.0 0.00 0.00 0.00 53 1014.5